Butler, PA

12:42 AM EST on November 18, 2017 (GMT -0500)
Butler County-Scholter

Weather History for KBTP - October, 2011

Change the Weather History Date:

Sunday, October 30, 2011

  Actual Average Record
Temperature  
Mean Temperature 34 °F -  
Max Temperature 39 °F 54 °F 76 °F (1971)
Min Temperature 30 °F 37 °F 19 °F (1969)
Degree Days  
Heating Degree Days 30    
Moisture  
Dew Point 31 °F    
Average Humidity 93    
Maximum Humidity 100    
Minimum Humidity 81    
Precipitation  
Precipitation 0.00 in - - ()
Sea Level Pressure  
Sea Level Pressure 30.23 in    
Wind  
Wind Speed 2 mph (SE)    
Max Wind Speed 7 mph    
Max Gust Speed -    
Visibility 4 miles    
Events      
Averages and records for this station are not official NWS values.
T = Trace of Precipitation, MM = Missing Value Source: NWS Daily Summary

Daily Weather History Graph

Daily Weather History Graph

Search for Another Location

Airport or City:

Trip Planner

Search our weather history database for the weather conditions in past years. The results will help you decide how hot, cold, wet, or windy it might be!

Date:

Astronomy

Oct. 30, 2011 Rise Set
Actual Time 7:47 AM EDT 6:18 PM EDT
Civil Twilight 7:19 AM EDT 6:47 PM EDT
Nautical Twilight 6:46 AM EDT 7:19 PM EDT
Astronomical Twilight 6:15 AM EDT 7:51 PM EDT
Moon 12:06 PM EDT (10/30) 9:44 PM EDT (10/30)
Length of Visible Light 11h 27m
Length of Day
10h 31m
Waxing Crescent, 20% of the Moon is Illuminated
Oct 30
Waxing Crescent
Nov 2
First Quarter
Nov 10
Full
Nov 18
Last Quarter
Nov 25
New

Hourly Weather History & Observations

Time (EDT) Temp. Windchill Dew Point Humidity Pressure Visibility Wind Dir Wind Speed Gust Speed Precip Events Conditions
12:15 AM 30.2 °F - 28.4 °F 93% 30.12 in 2.5 mi Calm Calm - N/A   Overcast
12:35 AM 30.2 °F - 28.4 °F 93% 30.12 in 3.0 mi Calm Calm - N/A   Overcast
12:55 AM 30.2 °F - 30.2 °F 100% 30.12 in 2.5 mi Calm Calm - N/A   Overcast
1:15 AM 32.0 °F - 30.2 °F 93% 30.12 in 3.0 mi Calm Calm - N/A   Overcast
1:35 AM 32.0 °F - 30.2 °F 93% 30.14 in 5.0 mi Calm Calm - N/A   Overcast
1:55 AM 32.0 °F - 30.2 °F 93% 30.14 in 2.5 mi Calm Calm - N/A   Overcast
2:15 AM 30.2 °F 26.7 °F 30.2 °F 100% 30.13 in 0.8 mi ENE 3.5 mph - N/A   Overcast
2:35 AM 30.2 °F - 30.2 °F 100% 30.15 in 0.2 mi Calm Calm - N/A   Overcast
2:55 AM 30.2 °F 26.7 °F 30.2 °F 100% 30.16 in 0.2 mi WSW 3.5 mph - N/A   Overcast
3:15 AM 30.2 °F - 30.2 °F 100% 30.16 in 0.2 mi Calm Calm - N/A   Overcast
3:35 AM 30.2 °F - 30.2 °F 100% 30.16 in 0.2 mi Calm Calm - N/A   Overcast
3:55 AM 30.2 °F - 28.4 °F 93% 30.16 in 0.2 mi Calm Calm - N/A   Overcast
4:15 AM 30.2 °F 26.7 °F 28.4 °F 93% 30.15 in 0.2 mi NE 3.5 mph - N/A   Overcast
4:35 AM 30.2 °F - 28.4 °F 93% 30.17 in 0.2 mi Calm Calm - N/A   Overcast
4:55 AM 30.2 °F - 30.2 °F 100% 30.17 in 0.2 mi Calm Calm - N/A   Overcast
5:55 AM 30.2 °F - 30.2 °F 100% 30.20 in 0.2 mi Calm Calm - N/A   Overcast
6:15 AM 30.2 °F 26.7 °F 28.4 °F 93% 30.21 in 0.2 mi ESE 3.5 mph - N/A   Overcast
6:35 AM 30.2 °F 26.7 °F 30.2 °F 100% 30.22 in 0.2 mi SSW 3.5 mph - N/A   Overcast
6:55 AM 30.2 °F 24.3 °F 28.4 °F 93% 30.21 in 0.2 mi NE 5.8 mph - N/A   Overcast
7:15 AM 30.2 °F 25.4 °F 30.2 °F 100% 30.22 in 0.5 mi ENE 4.6 mph - N/A   Overcast
7:35 AM 30.2 °F - 28.4 °F 93% 30.23 in 0.5 mi Calm Calm - N/A   Overcast
7:55 AM 30.2 °F 26.7 °F 28.4 °F 93% 30.25 in 0.2 mi South 3.5 mph - N/A   Overcast
8:15 AM 30.2 °F 25.4 °F 30.2 °F 100% 30.25 in 0.2 mi South 4.6 mph - N/A   Overcast
8:35 AM 30.2 °F 25.4 °F 28.4 °F 93% 30.26 in 0.2 mi SSE 4.6 mph - N/A   Overcast
8:55 AM 30.2 °F 26.7 °F 28.4 °F 93% 30.26 in 0.2 mi ESE 3.5 mph - N/A   Overcast
9:15 AM 30.2 °F 25.4 °F 28.4 °F 93% 30.27 in 0.2 mi East 4.6 mph - N/A   Overcast
9:35 AM 30.2 °F 25.4 °F 30.2 °F 100% 30.27 in 0.2 mi SE 4.6 mph - N/A   Overcast
9:55 AM 30.2 °F 25.4 °F 30.2 °F 100% 30.28 in 0.2 mi East 4.6 mph - N/A   Overcast
10:15 AM 32.0 °F 26.4 °F 30.2 °F 93% 30.29 in 0.2 mi SE 5.8 mph - N/A   Overcast
10:35 AM 32.0 °F 27.5 °F 30.2 °F 93% 30.29 in 0.2 mi SE 4.6 mph - N/A   Overcast
10:55 AM 32.0 °F 27.5 °F 30.2 °F 93% 30.30 in 0.5 mi South 4.6 mph - N/A   Overcast
11:15 AM 32.0 °F 26.4 °F 32.0 °F 100% 30.30 in 0.5 mi SSE 5.8 mph - N/A   Overcast
11:35 AM 33.8 °F 29.6 °F 32.0 °F 93% 30.31 in 0.5 mi South 4.6 mph - N/A   Overcast
11:55 AM 33.8 °F 29.6 °F 32.0 °F 93% 30.31 in 1.0 mi SSW 4.6 mph - N/A   Overcast
12:15 PM 33.8 °F 28.6 °F 32.0 °F 93% 30.31 in 2.5 mi SSE 5.8 mph - N/A   Overcast
12:35 PM 33.8 °F 27.7 °F 33.8 °F 100% 30.30 in 5.0 mi SSE 6.9 mph - N/A   Overcast
12:55 PM 33.8 °F 28.6 °F 33.8 °F 100% 30.30 in 5.0 mi South 5.8 mph - N/A   Overcast
1:35 PM 33.8 °F - 33.8 °F 100% 30.29 in 3.0 mi Calm Calm - N/A   Overcast
1:55 PM 35.6 °F 31.7 °F 33.8 °F 93% 30.29 in 5.0 mi SSE 4.6 mph - N/A   Overcast
2:35 PM 35.6 °F 31.7 °F 33.8 °F 93% 30.28 in 9.0 mi SSE 4.6 mph - N/A   Overcast
2:55 PM 35.6 °F 32.8 °F 33.8 °F 93% 30.28 in 10.0 mi SSE 3.5 mph - N/A   Overcast
3:15 PM 37.4 °F 34.9 °F 33.8 °F 87% 30.27 in 10.0 mi ESE 3.5 mph - N/A   Overcast
3:35 PM 37.4 °F 34.9 °F 35.6 °F 93% 30.27 in 10.0 mi SSE 3.5 mph - N/A   Overcast
3:55 PM 37.4 °F 32.8 °F 33.8 °F 87% 30.27 in 10.0 mi ESE 5.8 mph - N/A   Overcast
4:35 PM 39.2 °F 35.9 °F 33.8 °F 81% 30.25 in 10.0 mi SSE 4.6 mph - N/A   Mostly Cloudy
4:55 PM 39.2 °F 35.0 °F 35.6 °F 87% 30.25 in 10.0 mi ENE 5.8 mph - N/A   Scattered Clouds
5:15 PM 39.2 °F 35.9 °F 33.8 °F 81% 30.26 in 10.0 mi East 4.6 mph - N/A   Clear
5:35 PM 39.2 °F 35.9 °F 33.8 °F 81% 30.26 in 10.0 mi ENE 4.6 mph - N/A   Clear
5:55 PM 37.4 °F 32.8 °F 33.8 °F 87% 30.26 in 10.0 mi East 5.8 mph - N/A   Clear
6:15 PM 37.4 °F 32.8 °F 33.8 °F 87% 30.26 in 10.0 mi ENE 5.8 mph - N/A   Clear
6:35 PM 37.4 °F 32.8 °F 33.8 °F 87% 30.26 in 9.0 mi ENE 5.8 mph - N/A   Clear
7:15 PM 35.6 °F 30.7 °F 30.2 °F 81% 30.26 in 9.0 mi East 5.8 mph - N/A   Clear
7:35 PM 33.8 °F 27.7 °F 30.2 °F 87% 30.26 in 9.0 mi East 6.9 mph - N/A   Clear
7:55 PM 33.8 °F 28.6 °F 30.2 °F 87% 30.26 in 7.0 mi ENE 5.8 mph - N/A   Clear
8:15 PM 33.8 °F 28.6 °F 30.2 °F 87% 30.26 in 6.0 mi East 5.8 mph - N/A   Clear
8:35 PM 32.0 °F 26.4 °F 28.4 °F 87% 30.25 in 5.0 mi East 5.8 mph - N/A   Clear
8:55 PM 32.0 °F 26.4 °F 28.4 °F 87% 30.26 in 5.0 mi ENE 5.8 mph - N/A   Clear
9:15 PM 32.0 °F 26.4 °F 28.4 °F 87% 30.25 in 5.0 mi ENE 5.8 mph - N/A   Clear
9:35 PM 30.2 °F 25.4 °F 28.4 °F 93% 30.25 in 5.0 mi ENE 4.6 mph - N/A   Clear
9:55 PM 30.2 °F 25.4 °F 28.4 °F 93% 30.25 in 4.0 mi ENE 4.6 mph - N/A   Clear
10:15 PM 30.2 °F 25.4 °F 28.4 °F 93% 30.26 in 3.0 mi NE 4.6 mph - N/A   Clear
10:35 PM 30.2 °F 26.7 °F 28.4 °F 93% 30.26 in 3.0 mi NE 3.5 mph - N/A   Clear
10:55 PM 30.2 °F 26.7 °F 28.4 °F 93% 30.26 in 3.0 mi NE 3.5 mph - N/A   Clear
11:15 PM 30.2 °F 25.4 °F 28.4 °F 93% 30.25 in 3.0 mi NE 4.6 mph - N/A   Clear
11:35 PM 30.2 °F 26.7 °F 28.4 °F 93% 30.25 in 3.0 mi NE 3.5 mph - N/A   Clear
11:55 PM 30.2 °F - 28.4 °F 93% 30.25 in 3.0 mi Calm Calm - N/A   Clear